London Cs, Ontario

5:33 PM EDT on July 28, 2016 (GMT -0400)
London

Weather History for CYXU - September, 2013

Change the Weather History Date:

Wednesday, September 4, 2013

  Actual Average Record
Temperature  
Mean Temperature 64 °F -  
Max Temperature 77 °F 74 °F 86 °F (1999)
Min Temperature 51 °F 54 °F 42 °F (1997)
Degree Days  
Heating Degree Days 1    
Growing Degree Days 14 (Base 50)    
Moisture  
Dew Point 56 °F    
Average Humidity 76    
Maximum Humidity 94    
Minimum Humidity 43    
Precipitation  
Precipitation 0.00 in - - ()
Sea Level Pressure  
Sea Level Pressure 30.02 in    
Wind  
Wind Speed 7 mph ()    
Max Wind Speed 18 mph    
Max Gust Speed 30 mph    
Visibility 15.0 miles    
Events      
Averages and records for this station are not official NWS values.
T = Trace of Precipitation, MM = Missing Value Source: Averaged Metar Reports

Daily Weather History Graph

Daily Weather History Graph

Search for Another Location

Airport or City:

Trip Planner

Search our weather history database for the weather conditions in past years. The results will help you decide how hot, cold, wet, or windy it might be!

Date:

Astronomy

Sep. 04, 2013 Rise Set
Actual Time 6:52 AM EDT 7:53 PM EDT
Civil Twilight 6:23 AM EDT 8:22 PM EDT
Nautical Twilight 5:48 AM EDT 8:57 PM EDT
Astronomical Twilight 5:12 AM EDT 9:33 PM EDT
Moon 6:03 AM EDT (9/4) 7:11 PM EDT (9/4)
Length of Visible Light 13h 59m
Length of Day
13h 01m
Waning Crescent, 1% of the Moon is Illuminated
Sep 4
Waning Crescent
Sep 5
New
Sep 12
First Quarter
Sep 19
Full
Sep 26
Last Quarter

Hourly Weather History & Observations

Time (EDT) Temp. Dew Point Humidity Pressure Visibility Wind Dir Wind Speed Gust Speed Precip Events Conditions
12:00 AM 55.4 °F 53.6 °F 94% 30.00 in 15.0 mi WSW 3.5 mph - N/A   Clear
1:00 AM 55.4 °F 51.8 °F 88% 30.00 in 15.0 mi SW 5.8 mph - N/A   Clear
2:00 AM 55 °F 52 °F 87% 30.00 in 15 mi WSW 6.9 mph - -  
2:00 AM 55.4 °F 51.8 °F 88% 30.00 in 15.0 mi WSW 6.9 mph - N/A   Clear
3:00 AM 55.4 °F 51.8 °F 88% 30.00 in 15.0 mi WSW 6.9 mph - N/A   Clear
4:00 AM 55.4 °F 51.8 °F 88% 30.01 in 15.0 mi West 6.9 mph - N/A   Clear
5:00 AM 53.6 °F 51.8 °F 94% 30.02 in 15.0 mi WSW 5.8 mph - N/A   Clear
6:00 AM 53.6 °F 51.8 °F 94% 30.03 in 15.0 mi West 6.9 mph - N/A   Partly Cloudy
7:00 AM 51.8 °F 50.0 °F 94% 30.04 in 15.0 mi WSW 5.8 mph - N/A   Clear
8:00 AM 56 °F 53 °F 88% 30.05 in 15 mi WSW 8.1 mph - -  
8:00 AM 55.4 °F 53.6 °F 94% 30.05 in 15.0 mi WSW 8.1 mph - N/A   Partly Cloudy
9:00 AM 60.8 °F 55.4 °F 82% 30.06 in 15.0 mi West 10.4 mph - N/A   Partly Cloudy
10:00 AM 64.4 °F 57.2 °F 77% 30.04 in 15.0 mi WSW 11.5 mph 17.3 mph N/A   Partly Cloudy
11:00 AM 68.0 °F 57.2 °F 68% 30.05 in 15.0 mi WSW 12.7 mph - N/A   Partly Cloudy
12:00 PM 71.6 °F 57.2 °F 60% 30.04 in 15.0 mi West 18.4 mph 29.9 mph N/A   Partly Cloudy
1:00 PM 73.4 °F 57.2 °F 57% 30.03 in 15.0 mi West 13.8 mph 21.9 mph N/A   Partly Cloudy
2:00 PM 76 °F 58 °F 43% 30.02 in 15 mi Calm Calm - -  
2:00 PM 75.2 °F 57.2 °F 53% 30.02 in 15.0 mi West 10.4 mph - N/A   Partly Cloudy
3:00 PM 77.0 °F 57.2 °F 50% 30.01 in 15.0 mi WSW 16.1 mph 23.0 mph N/A   Partly Cloudy
4:00 PM 77.0 °F 57.2 °F 50% 30.00 in 15.0 mi West 13.8 mph 20.7 mph N/A   Partly Cloudy
5:00 PM 75.2 °F 57.2 °F 53% 30.00 in 15.0 mi West 15.0 mph 23.0 mph N/A   Mostly Cloudy
6:00 PM 75.2 °F 59.0 °F 57% 30.00 in 15.0 mi West 9.2 mph - N/A   Mostly Cloudy
7:00 PM 71.6 °F 60.8 °F 69% 30.01 in 15.0 mi NNW 9.2 mph - N/A   Mostly Cloudy
8:00 PM 67 °F 60 °F 72% 30.03 in 15 mi NNW 11.5 mph - -   Overcast
8:00 PM 68.0 °F 60.8 °F 78% 30.03 in 15.0 mi NNW 13.8 mph - N/A   Overcast
9:00 PM 64.4 °F 60.8 °F 88% 30.04 in 15.0 mi NNW 5.8 mph - N/A   Overcast
10:00 PM 64.4 °F 59.0 °F 83% 30.05 in 15.0 mi NW 8.1 mph - N/A   Overcast
11:00 PM 60.8 °F 57.2 °F 88% 30.05 in 15.0 mi NNW 5.8 mph - N/A   Mostly Cloudy